SCP
0 0 0 0 0 0 0 0 0 0 0 0 0 0 0 0 0 0 0 0 0 0 0 1 1 1 1 1 1 1 1 1 1 1 1 1 1 1 1 1 1 1 1 1 1 1 1 1 1
0 0 0 0 0 0 0 0 0 0 0 0 0 0 0 0 0 0 0 0 0 0 1 1 1 1 1 1 1 1 0 1 1 1 1 1 1 1 1 1 1 1 0 0 1 1 1 1 1
0 0 0 0 0 0 0 0 0 0 0 0 0 0 0 0 0 0 0 0 0 0 1 1 1 1 1 1 1 1 0 0 0 0 0 0 0 0 0 1 1 0 0 0 0 1 1 1 1
0 0 0 0 0 0 0 0 0 0 0 0 0 0 0 0 0 0 0 0 0 0 1 1 1 1 1 1 1 1 1 0 0 0 0 0 0 1 1 1 1 0 0 0 1 1 1 1 1
0 0 0 0 0 0 0 0 0 0 0 0 0 0 0 0 0 0 0 0 0 0 1 1 1 1 1 1 1 1 1 0 0 0 0 0 0 1 1 1 1 0 0 0 0 1 1 1 1
0 0 0 0 0 0 0 0 0 0 0 0 0 0 0 0 0 0 0 0 0 0 1 1 1 1 1 1 1 1 1 1 0 0 0 0 1 1 1 1 1 0 0 0 0 0 0 0 1
0 0 0 0 0 0 0 0 0 0 0 0 0 0 0 0 0 0 0 0 0 0 0 1 1 1 1 1 1 1 1 1 0 0 0 0 0 1 1 1 0 0 0 0 0 0 0 0 0
0 0 0 0 0 0 0 0 0 0 0 0 0 0 0 0 0 0 0 0 0 0 0 1 1 1 1 1 1 1 1 1 1 1 1 0 0 0 1 1 0 0 0 0 0 0 0 0 0
1 0 0 0 0 0 0 0 0 0 0 0 0 0 0 0 0 0 0 0 0 0 0 1 1 1 1 0 0 1 1 1 1 0 0 0 0 0 0 1 0 0 0 0 0 0 0 0 0
0 0 0 0 0 0 0 0 0 0 0 0 0 0 0 1 1 0 0 0 0 0 0 0 1 0 0 0 0 0 0 0 0 0 0 0 0 0 0 0 0 0 0 0 0 0 0 0 1
0 0 0 0 0 0 0 0 0 0 0 0 0 0 1 1 1 0 0 0 0 0 0 0 0 0 0 0 0 0 0 0 0 0 0 0 0 0 0 0 0 0 0 0 0 0 0 0 0
0 0 0 0 0 0 0 0 0 0 0 0 0 0 1 1 1 0 0 0 0 0 0 0 0 0 0 0 0 0 0 0 0 0 0 0 0 0 0 0 0 0 0 0 0 0 0 0 0
0 0 0 0 0 0 0 0 0 0 0 0 1 1 1 1 1 0 0 0 0 0 0 0 0 0 0 0 0 0 0 0 0 0 0 0 0 0 0 0 0 0 0 0 0 0 1 1 1
0 0 0 0 0 0 0 0 0 0 0 1 1 1 1 1 1 0 0 0 0 0 0 0 0 0 0 0 0 0 0 0 0 0 0 0 0 0 0 0 0 0 0 0 0 0 1 1 1
0 0 0 0 0 0 0 0 0 0 0 1 1 1 1 1 1 0 0 0 0 0 0 0 0 0 0 0 0 0 0 0 0 0 0 0 0 0 0 0 0 0 0 0 0 0 1 1 1
0 0 0 0 0 0 0 0 0 0 1 1 1 1 1 1 1 1 0 0 0 0 0 0 0 0 0 0 0 0 0 0 0 0 0 0 0 0 0 0 0 0 0 0 0 0 1 1 0
0 0 0 0 0 0 0 0 0 1 1 1 1 1 1 1 1 1 1 1 1 1 1 0 0 0 0 0 0 0 0 0 0 0 0 0 0 0 0 0 0 0 0 0 0 0 1 1 0
0 0 0 0 0 0 0 0 0 1 1 1 0 0 1 1 1 1 1 1 1 1 1 0 0 0 0 0 0 0 0 0 0 0 0 0 0 0 0 0 0 0 0 0 0 0 1 0 0
0 0 0 0 0 0 0 0 0 1 1 1 0 1 1 1 1 1 1 1 1 1 1 1 0 0 0 0 0 0 0 0 0 0 0 0 0 0 0 0 0 0 0 0 0 1 1 0 0
0 0 0 0 0 0 0 0 0 0 0 1 0 0 1 1 1 1 1 1 1 1 1 0 0 0 0 0 0 0 0 0 0 0 0 0 0 0 0 0 0 0 0 0 0 0 0 0 0
0 0 0 0 0 0 0 0 0 0 0 0 0 0 0 1 1 1 1 1 1 1 0 0 0 0 0 0 0 0 0 0 0 0 0 0 0 0 0 0 0 0 0 0 0 0 0 0 0
0 0 0 0 0 0 0 0 0 0 0 0 0 0 0 0 1 1 1 1 1 0 0 0 0 0 0 0 0 0 0 0 0 0 0 0 0 0 0 0 0 0 0 0 0 0 0 0 0
0 0 0 0 0 0 0 0 0 0 0 0 0 0 0 0 1 1 1 1 1 0 0 0 0 0 0 0 0 0 0 0 0 0 0 0 0 0 0 0 0 0 0 0 0 0 0 0 0
0 0 0 0 0 0 0 0 0 0 0 0 0 0 0 0 1 1 1 1 1 1 0 0 0 0 0 0 0 0 0 0 0 0 0 0 0 0 0 0 0 0 0 0 0 0 0 0 0
0 0 0 0 0 0 0 0 0 0 0 0 0 0 0 0 1 1 1 1 1 1 0 0 0 0 0 0 0 0 0 0 0 0 0 0 0 0 0 0 0 0 0 0 0 0 0 0 0
0 0 0 0 0 0 0 0 0 0 0 0 0 0 0 0 1 1 1 1 1 1 1 0 0 0 0 0 0 0 0 0 0 0 0 0 0 0 0 0 0 0 0 0 0 0 0 0 0
0 0 0 0 0 0 0 0 0 0 0 0 0 0 0 0 0 1 1 1 1 1 1 0 0 0 0 0 0 0 0 0 0 0 0 0 0 0 0 0 0 0 0 0 0 0 0 0 0
0 0 0 0 0 0 0 0 0 0 0 0 0 0 0 0 0 1 1 1 1 1 1 1 0 0 0 0 0 0 0 0 0 0 0 0 0 0 0 0 0 0 0 0 0 0 0 0 0
0 0 0 0 0 0 0 0 0 0 0 0 0 0 0 0 0 0 1 1 1 1 1 1 0 0 0 0 0 0 0 0 0 0 0 0 0 0 0 0 0 0 0 0 0 0 0 0 0
0 0 0 0 0 0 0 0 0 0 0 0 0 1 1 0 0 1 1 1 1 1 1 1 0 0 0 0 0 0 0 0 0 0 0 0 0 0 0 0 0 0 0 0 0 0 0 0 0
Wind_Speed
3 3 3 3 5 2 4 4 3 3 4 4 5 4 4 5 5 5 5 4 3 4 5 6 6 6 6 6 7 7 8 8 8 8 8 8 8 9 9 8 9 8 8 8 8 7 7 7 7
1 3 4 4 4 2 5 3 4 5 5 4 4 4 5 6 6 5 4 4 4 5 5 6 7 7 7 7 7 7 8 8 9 8 8 8 8 8 8 7 8 8 8 8 7 7 7 6 6
3 3 3 3 0 2 5 4 5 6 4 2 3 4 4 5 4 4 5 5 5 5 5 8 7 7 7 7 7 7 8 8 8 8 8 8 8 8 7 7 8 7 7 7 7 6 6 6 6
3 3 3 2 4 5 4 5 4 5 3 2 3 6 5 5 4 5 6 5 6 6 6 8 7 7 8 8 7 7 8 8 8 8 8 8 8 8 7 7 7 7 7 6 6 6 6 6 6
3 3 3 3 4 5 4 4 3 3 3 3 3 6 7 5 6 7 6 6 7 7 7 9 9 8 8 8 8 8 9 8 8 8 9 9 9 8 7 7 8 8 7 6 6 5 5 5 5
3 3 3 4 5 5 4 3 2 2 4 4 4 6 7 6 7 7 7 6 7 7 7 9 10 10 9 9 8 8 8 8 8 9 9 9 8 7 7 7 7 7 6 5 5 5 5 5 5
3 2 1 4 5 4 4 2 1 2 3 4 2 5 7 7 6 7 7 7 7 7 7 7 8 9 10 9 9 8 8 8 9 9 8 8 7 7 7 8 7 7 6 5 5 4 5 5 6
2 2 3 3 4 4 4 3 2 1 4 4 1 3 6 9 7 7 7 7 7 6 6 7 7 7 7 9 9 9 9 8 8 8 8 7 7 7 6 7 7 6 6 6 5 5 6 6 7
4 4 3 3 3 3 4 4 3 2 5 4 2 3 7 11 9 8 7 6 6 6 5 6 6 6 6 7 7 7 8 7 5 7 6 3 4 6 5 9 7 7 7 7 6 6 6 5 7
3 2 2 1 1 3 4 3 4 4 5 5 6 7 10 11 9 8 7 7 6 6 6 5 5 5 5 4 4 3 4 4 3 4 4 3 4 4 5 7 6 6 6 6 7 5 4 1 4
1 1 2 2 1 2 4 3 3 3 2 3 6 11 12 11 9 8 7 6 5 5 5 4 4 4 4 3 3 2 2 2 3 3 3 2 3 3 3 3 4 4 4 4 5 3 4 4 5
1 2 1 2 2 2 2 3 3 2 1 2 6 11 12 11 9 8 7 6 5 5 4 4 4 4 4 3 2 2 2 2 2 2 3 2 2 2 3 2 3 3 3 3 3 3 5 6 6
2 2 2 2 2 2 2 3 2 2 2 5 8 11 11 10 8 7 6 6 5 5 4 4 3 3 3 3 1 2 2 1 3 2 1 2 2 3 3 3 3 3 3 3 3 4 6 5 7
2 2 2 2 2 2 3 3 3 4 6 8 9 10 10 9 8 7 7 6 6 5 5 4 4 3 3 3 2 2 2 2 2 2 2 2 2 2 3 4 3 3 3 3 3 5 5 5 6
3 3 3 2 2 2 3 4 4 5 8 9 9 9 9 9 8 7 6 6 5 6 5 5 3 3 3 3 3 2 2 2 2 2 2 3 3 3 3 3 3 3 3 4 3 6 4 5 5
4 5 4 3 2 3 6 4 4 6 9 9 9 9 9 9 9 7 6 5 5 5 5 5 4 3 3 3 3 2 2 3 2 2 2 3 3 4 3 2 3 3 3 3 3 3 4 5 5
5 5 3 2 3 4 6 4 4 7 9 9 9 9 9 9 9 8 7 6 5 5 5 6 6 5 4 4 3 3 3 3 3 3 2 2 4 3 3 2 2 3 2 3 3 3 3 5 5
4 4 4 4 2 5 7 7 5 7 9 9 9 9 10 10 9 8 7 6 5 5 5 6 6 5 5 3 3 3 3 3 3 3 3 3 3 3 3 2 3 3 2 3 3 4 4 4 4
3 4 5 3 1 5 8 8 7 7 10 10 10 11 11 10 9 8 8 8 7 7 6 6 7 6 5 3 3 3 3 3 3 3 4 3 2 3 3 2 2 2 2 3 4 4 5 4 3
6 6 5 3 1 5 7 9 7 7 11 11 11 12 12 11 10 9 9 9 9 9 7 7 6 6 5 3 2 2 3 2 3 2 3 3 2 2 2 2 2 2 2 3 4 3 3 3 1
7 7 5 4 3 5 7 7 6 6 8 9 10 11 12 12 12 12 11 10 9 9 9 6 6 6 5 5 3 3 3 3 3 3 2 2 2 3 2 3 2 2 2 3 3 3 3 2 1
6 4 5 5 6 3 3 5 3 5 7 9 11 12 12 12 12 11 11 11 11 10 9 8 8 7 6 6 4 4 3 3 3 2 2 3 3 3 2 2 2 2 2 3 3 2 1 1 1
2 2 4 5 7 7 6 7 3 3 6 7 9 11 13 13 13 12 12 11 10 10 8 8 8 7 7 6 5 4 3 3 3 2 3 3 3 3 2 2 2 2 2 2 2 2 1 1 0
4 4 4 4 6 7 4 7 4 2 4 5 6 9 11 12 12 12 11 10 10 9 9 8 9 8 7 7 7 5 5 4 4 4 3 3 3 3 3 2 2 2 2 2 2 2 1 0 0
7 5 4 5 5 3 1 5 4 2 2 4 4 5 8 10 12 13 13 13 12 11 11 10 10 9 8 7 6 6 5 5 4 3 3 3 3 3 3 2 2 2 3 2 2 2 1 1 1
7 7 4 3 3 2 3 5 1 1 2 2 2 3 7 10 11 12 13 13 12 12 11 11 11 10 9 8 7 6 5 3 2 3 3 3 2 3 3 2 2 3 3 2 2 1 2 1 2
7 7 5 6 5 5 4 2 2 1 1 1 1 3 6 9 11 12 12 13 13 12 12 12 11 10 10 9 7 6 6 4 4 4 4 3 3 3 3 3 3 3 2 2 2 1 2 2 2
5 5 5 6 5 5 4 4 2 1 1 1 1 3 5 8 10 11 12 12 12 11 11 11 11 11 10 9 7 5 5 5 4 4 4 4 4 4 4 4 4 4 3 3 2 2 2 2 3
7 8 7 5 5 5 4 1 1 2 2 2 1 2 4 7 8 9 10 11 11 11 11 11 11 11 10 9 8 7 6 5 5 4 4 4 5 5 4 3 3 4 3 3 3 2 2 2 3
8 8 9 7 5 6 5 2 3 2 3 2 1 2 4 5 7 8 10 11 11 12 11 11 11 11 10 9 9 8 7 6 6 6 5 5 5 4 4 4 3 3 3 3 3 3 2 2 2
Wind_Direction
186 184 210 229 232 182 87 80 76 77 68 63 60 53 61 43 19 55 75 77 85 94 95 110 102 98 100 102 104 104 100 103 101 100 98 97 96 95 93 93 90 87 82 78 78 74 72 70 69
189 185 226 240 247 145 97 93 88 63 86 100 80 66 75 72 56 77 94 90 92 89 88 87 95 98 98 100 101 103 102 102 100 99 97 95 93 92 93 92 87 83 80 77 75 74 71 69 70
174 229 256 245 247 70 98 96 95 95 93 97 91 61 54 66 71 80 92 112 106 93 86 87 88 93 96 98 100 104 107 103 99 95 93 92 91 89 88 92 87 83 79 76 74 72 69 66 68
210 219 233 219 104 69 83 104 116 125 113 73 103 94 79 57 61 93 112 115 107 97 87 87 82 87 93 95 100 104 105 100 97 96 93 91 88 87 89 87 86 83 77 75 75 72 71 67 66
236 248 207 148 109 95 88 99 127 123 106 95 102 101 95 80 90 106 112 104 101 92 85 87 80 82 84 90 91 95 99 98 97 95 92 90 86 84 83 84 87 87 83 80 76 73 71 67 66
227 240 212 148 123 117 114 116 134 102 104 104 105 110 99 107 111 111 108 102 100 97 96 100 95 82 79 81 86 93 95 95 94 90 89 89 87 85 85 84 85 85 84 79 75 75 72 67 63
263 242 188 144 142 138 113 120 130 106 115 103 97 110 119 126 117 119 113 107 101 100 97 96 101 101 94 84 83 92 94 92 89 86 85 87 88 86 85 84 82 83 82 77 75 76 77 72 66
289 237 171 163 163 129 120 132 93 79 93 107 127 122 136 140 136 130 122 116 109 104 98 95 92 90 96 96 81 79 83 84 85 84 82 91 107 103 98 100 82 78 77 74 76 77 77 76 72
261 233 180 156 171 130 146 153 115 111 127 128 104 80 119 137 147 144 138 129 119 113 105 97 96 92 86 84 90 97 95 90 111 110 103 143 117 105 115 74 75 74 73 72 74 78 82 92 93
254 237 103 95 145 136 159 164 146 166 154 145 134 124 135 148 157 156 149 139 134 124 113 108 103 101 94 85 92 96 95 91 75 73 82 81 79 78 77 98 82 79 85 91 79 89 124 174 102
249 49 90 120 123 146 157 153 164 197 175 161 158 153 153 158 161 158 147 135 124 121 119 119 119 110 104 101 83 80 83 85 79 68 82 81 97 112 101 108 118 108 117 100 108 133 83 77 68
157 91 96 116 124 169 163 157 170 224 49 105 142 151 157 164 162 159 149 139 140 134 123 117 122 125 114 103 92 101 93 84 77 77 72 85 86 91 90 91 85 95 90 79 83 77 78 78 82
165 118 107 119 134 150 159 174 180 166 128 133 144 156 164 164 159 156 150 150 152 145 142 125 123 114 106 98 108 128 107 97 98 81 82 89 97 94 102 100 94 90 90 99 88 91 88 81 75
119 139 141 146 150 167 182 179 194 155 149 151 158 165 170 167 167 164 167 167 162 157 150 139 145 127 123 124 120 98 100 111 93 98 102 99 99 99 102 103 100 95 91 88 101 98 94 84 79
161 174 168 175 189 175 213 208 192 154 164 165 171 172 173 173 176 181 176 175 166 157 155 143 144 132 123 99 84 90 95 91 89 92 105 105 95 105 113 103 109 111 110 108 96 96 97 95 90
189 208 205 164 203 193 236 236 157 165 180 181 182 176 179 180 185 186 182 177 166 162 149 139 144 137 118 107 106 101 96 88 90 92 83 98 106 104 103 102 104 114 116 112 105 107 102 97 87
203 222 235 200 197 216 235 248 167 178 195 195 192 187 185 184 189 188 188 183 170 164 154 148 142 137 124 115 117 104 96 88 92 94 84 85 91 102 107 93 107 117 120 118 116 106 106 101 94
217 233 238 247 195 235 243 249 212 192 209 209 199 197 192 192 189 184 184 177 168 168 166 150 135 142 133 138 131 118 101 94 89 90 88 74 77 82 94 112 122 122 132 125 120 111 100 97 99
247 248 258 273 267 255 257 260 247 205 213 215 208 204 201 197 188 181 183 179 174 175 174 159 156 154 153 153 154 142 125 119 106 83 76 84 84 90 92 105 104 123 127 135 138 131 128 121 124
230 245 259 254 231 262 274 270 257 221 220 219 215 208 204 199 190 184 187 186 183 179 181 174 163 162 165 162 151 141 130 117 98 104 95 81 81 81 89 98 112 126 127 139 137 148 141 129 175
232 246 262 274 274 241 277 261 231 217 220 221 223 219 209 201 197 189 188 188 186 183 185 177 167 167 167 161 151 149 139 145 139 123 99 73 70 75 74 84 95 113 136 141 153 162 159 159 156
237 239 253 257 263 259 271 286 233 216 212 215 216 214 212 204 201 192 188 185 188 183 180 177 173 171 164 167 171 166 164 154 134 128 120 115 94 83 67 78 92 117 120 139 150 142 166 185 184
248 213 235 253 267 268 240 266 261 199 234 226 215 211 210 205 201 194 190 185 184 175 176 176 170 169 168 176 168 178 171 155 142 142 133 127 106 95 89 83 98 107 113 126 136 143 197 189 248
175 187 192 227 253 256 253 257 273 220 259 255 222 210 205 202 198 195 188 182 176 172 173 171 171 171 168 177 179 183 171 169 160 160 149 147 133 122 108 99 98 105 108 116 126 139 143 125 63
205 225 226 218 220 247 192 252 269 327 294 276 256 215 198 194 193 190 185 184 179 176 175 173 174 173 173 181 186 182 182 179 172 162 158 159 146 135 119 117 107 101 100 108 117 130 123 123 126
208 231 255 270 272 274 208 249 281 13 301 276 258 216 190 189 190 190 187 187 183 180 179 179 179 176 175 182 185 183 175 188 169 167 162 161 150 134 125 121 112 113 118 121 110 105 100 100 104
208 223 262 278 276 268 240 250 247 195 250 267 216 181 185 186 188 188 186 187 185 182 181 183 180 178 178 183 182 179 178 179 172 172 168 157 144 137 133 131 132 122 121 121 116 99 98 90 92
250 203 207 239 265 264 263 258 254 189 278 301 203 190 181 180 185 186 184 186 186 182 181 182 182 180 179 179 177 174 177 174 174 169 166 157 147 143 144 151 144 137 137 131 116 102 89 113 94
186 200 219 234 255 274 279 268 65 278 290 297 268 190 181 179 180 182 180 181 180 178 178 180 182 182 178 178 175 174 174 177 172 171 160 164 155 160 152 153 147 137 133 130 126 118 119 114 115
221 218 218 231 235 249 273 276 106 277 286 285 253 171 172 175 175 178 177 177 177 179 180 183 182 180 178 176 175 177 171 178 177 169 169 171 160 155 149 148 140 126 122 116 123 126 127 109 102